| time (UTC) | temp F | wind direction | speed MPH | gust MPH | rain 1hr in | rain 24hr in | rain mn in | humidity % | barometer mb |
| 20260506135118 | 36 | 272 | 2.0 | 9.0 | 0.00 | 0.00 | 0.00 | 75 | 1014.1 |
| 20260506134615 | 35 | 309 | 2.0 | 6.0 | 0.00 | 0.00 | 0.00 | 76 | 1013.9 |
| 20260506134110 | 35 | 286 | 4.0 | 7.0 | 0.00 | 0.00 | 0.00 | 75 | 1014.0 |
| 20260506133608 | 35 | 289 | 6.0 | 8.0 | 0.00 | 0.00 | 0.00 | 77 | 1014.0 |
| 20260506133105 | 35 | 283 | 6.0 | 10.0 | 0.00 | 0.00 | 0.00 | 77 | 1013.8 |
| 20260506132602 | 35 | 300 | 5.0 | 10.0 | 0.00 | 0.00 | 0.00 | 76 | 1013.9 |
| 20260506132059 | 35 | 232 | 1.0 | 9.0 | 0.00 | 0.00 | 0.00 | 79 | 1013.8 |
| 20260506131556 | 35 | 316 | 6.0 | 9.0 | 0.00 | 0.00 | 0.00 | 79 | 1013.7 |
| 20260506131052 | 35 | 267 | 2.0 | 8.0 | 0.00 | 0.00 | 0.00 | 80 | 1013.8 |
| 20260506130549 | 34 | 281 | 4.0 | 6.0 | 0.00 | 0.00 | 0.00 | 79 | 1013.7 |
| 20260506130047 | 34 | 284 | 5.0 | 7.0 | 0.00 | 0.00 | 0.00 | 79 | 1013.7 |
| 20260506125545 | 35 | 298 | 4.0 | 9.0 | 0.00 | 0.00 | 0.00 | 79 | 1013.6 |
| 20260506125043 | 34 | 307 | 3.0 | 6.0 | 0.00 | 0.00 | 0.00 | 80 | 1013.6 |
| 20260506124540 | 34 | 315 | 2.0 | 8.0 | 0.00 | 0.00 | 0.00 | 79 | 1013.4 |
| 20260506124038 | 34 | 238 | 6.0 | 9.0 | 0.00 | 0.00 | 0.00 | 79 | 1013.5 |
| 20260506123535 | 34 | 273 | 3.0 | 4.0 | 0.00 | 0.00 | 0.00 | 80 | 1013.4 |
| 20260506123034 | 34 | 264 | 5.0 | 9.0 | 0.00 | 0.00 | 0.00 | 80 | 1013.5 |
| 20260506122530 | 34 | 271 | 6.0 | 9.0 | 0.00 | 0.00 | 0.00 | 80 | 1013.3 |
| 20260506122028 | 34 | 270 | 2.0 | 6.0 | 0.00 | 0.00 | 0.00 | 81 | 1013.4 |
| 20260506121525 | 34 | 292 | 4.0 | 7.0 | 0.00 | 0.00 | 0.00 | 81 | 1013.3 |
| 20260506121021 | 34 | 275 | 1.0 | 6.0 | 0.00 | 0.00 | 0.00 | 82 | 1013.2 |
| 20260506120520 | 34 | 251 | 4.0 | 9.0 | 0.00 | 0.00 | 0.00 | 81 | 1013.4 |
| 20260506120017 | 34 | 298 | 5.0 | 7.0 | 0.00 | 0.00 | 0.00 | 82 | 1013.2 |
| 20260506115514 | 34 | 272 | 2.0 | 2.0 | 0.00 | 0.00 | 0.00 | 83 | 1013.2 |
| 20260506115013 | 33 | 289 | 4.0 | 8.0 | 0.00 | 0.00 | 0.00 | 82 | 1013.3 |
| 20260506114510 | 33 | 285 | 2.0 | 4.0 | 0.00 | 0.00 | 0.00 | 82 | 1013.2 |
| 20260506114008 | 33 | 268 | 1.0 | 6.0 | 0.00 | 0.00 | 0.00 | 82 | 1013.1 |
| 20260506113506 | 33 | 273 | 3.0 | 4.0 | 0.00 | 0.00 | 0.00 | 82 | 1013.1 |
| 20260506113003 | 33 | 266 | 1.0 | 6.0 | 0.00 | 0.00 | 0.00 | 83 | 1013.1 |
| 20260506112459 | 33 | 268 | 1.0 | 3.0 | 0.00 | 0.00 | 0.00 | 82 | 1013.1 |
| 20260506111956 | 33 | 267 | 2.0 | 3.0 | 0.00 | 0.00 | 0.00 | 82 | 1013.1 |
| 20260506111455 | 33 | 260 | 4.0 | 6.0 | 0.00 | 0.00 | 0.00 | 83 | 1013.0 |
| 20260506110951 | 33 | 333 | 3.0 | 7.0 | 0.00 | 0.00 | 0.00 | 82 | 1012.9 |
| 20260506110449 | 33 | 321 | 4.0 | 6.0 | 0.00 | 0.00 | 0.00 | 83 | 1013.0 |
| 20260506105945 | 33 | 271 | 5.0 | 8.0 | 0.00 | 0.00 | 0.00 | 82 | 1012.9 |
| 20260506105442 | 33 | 329 | 2.0 | 7.0 | 0.00 | 0.00 | 0.00 | 82 | 1012.8 |
| 20260506104939 | 33 | 274 | 2.0 | 3.0 | 0.00 | 0.00 | 0.00 | 82 | 1012.9 |
| 20260506104438 | 33 | 269 | 1.0 | 4.0 | 0.00 | 0.00 | 0.00 | 82 | 1012.7 |
| 20260506103936 | 33 | 262 | 2.0 | 7.0 | 0.00 | 0.00 | 0.00 | 83 | 1012.7 |
| 20260506103432 | 33 | 287 | 4.0 | 7.0 | 0.00 | 0.00 | 0.00 | 83 | 1012.6 |
| 20260506102929 | 33 | 288 | 2.0 | 10.0 | 0.00 | 0.00 | 0.00 | 83 | 1012.6 |
| 20260506102427 | 33 | 281 | 4.0 | 6.0 | 0.00 | 0.00 | 0.00 | 83 | 1012.5 |
| 20260506101924 | 33 | 288 | 1.0 | 3.0 | 0.00 | 0.00 | 0.00 | 83 | 1012.4 |
| 20260506101420 | 33 | 288 | 4.0 | 7.0 | 0.00 | 0.00 | 0.00 | 82 | 1012.6 |
| 20260506100918 | 33 | 266 | 1.0 | 4.0 | 0.00 | 0.00 | 0.00 | 82 | 1012.5 |
| 20260506100416 | 33 | 291 | 2.0 | 9.0 | 0.00 | 0.00 | 0.00 | 80 | 1012.6 |
| 20260506095914 | 33 | 266 | 3.0 | 4.0 | 0.00 | 0.00 | 0.00 | 79 | 1012.6 |
| 20260506095412 | 33 | 274 | 2.0 | 3.0 | 0.00 | 0.00 | 0.00 | 78 | 1012.5 |
| 20260506094908 | 33 | 268 | 1.0 | 3.0 | 0.00 | 0.00 | 0.00 | 78 | 1012.6 |
| 20260506094407 | 33 | 289 | 3.0 | 7.0 | 0.00 | 0.00 | 0.00 | 78 | 1012.5 |
| 20260506093904 | 33 | 267 | 1.0 | 4.0 | 0.00 | 0.00 | 0.00 | 77 | 1012.5 |
| 20260506093402 | 34 | 269 | 1.0 | 4.0 | 0.00 | 0.00 | 0.00 | 76 | 1012.4 |
| 20260506092859 | 34 | 279 | 1.0 | 6.0 | 0.00 | 0.00 | 0.00 | 77 | 1012.7 |
| 20260506092357 | 34 | 291 | 4.0 | 6.0 | 0.00 | 0.00 | 0.00 | 77 | 1012.6 |
| 20260506091853 | 34 | 297 | 2.0 | 4.0 | 0.00 | 0.00 | 0.00 | 77 | 1012.7 |
| 20260506091351 | 34 | 274 | 2.0 | 3.0 | 0.00 | 0.00 | 0.00 | 76 | 1012.6 |
| 20260506090848 | 34 | 283 | 2.0 | 10.0 | 0.00 | 0.00 | 0.00 | 75 | 1012.5 |
| 20260506090345 | 34 | 258 | 5.0 | 7.0 | 0.00 | 0.00 | 0.00 | 73 | 1012.7 |
| 20260506085837 | 34 | 265 | 2.0 | 4.0 | 0.00 | 0.00 | 0.00 | 72 | 1012.5 |
| 20260506085333 | 34 | 241 | 1.0 | 4.0 | 0.00 | 0.00 | 0.00 | 72 | 1012.4 |
| 20260506084829 | 34 | 294 | 1.0 | 3.0 | 0.00 | 0.00 | 0.00 | 71 | 1012.6 |
| 20260506084326 | 34 | 304 | 4.0 | 6.0 | 0.00 | 0.00 | 0.00 | 70 | 1012.5 |
| 20260506083817 | 34 | 277 | 1.0 | 2.0 | 0.00 | 0.00 | 0.00 | 69 | 1012.5 |
| 20260506083315 | 35 | 287 | 4.0 | 6.0 | 0.00 | 0.00 | 0.00 | 66 | 1012.5 |
| 20260506082812 | 35 | 301 | 3.0 | 7.0 | 0.00 | 0.00 | 0.00 | 63 | 1012.5 |
| 20260506082308 | 35 | 280 | 3.0 | 3.0 | 0.00 | 0.00 | 0.00 | 61 | 1012.6 |
| 20260506081805 | 35 | 295 | 3.0 | 7.0 | 0.00 | 0.00 | 0.00 | 61 | 1012.5 |
| 20260506081302 | 35 | 275 | 1.0 | 3.0 | 0.00 | 0.00 | 0.00 | 60 | 1012.4 |
| 20260506080801 | 35 | 267 | 3.0 | 4.0 | 0.00 | 0.00 | 0.00 | 60 | 1012.4 |
| 20260506080256 | 35 | 264 | 2.0 | 8.0 | 0.00 | 0.00 | 0.00 | 58 | 1012.3 |
| 20260506073240 | 34 | 309 | 2.0 | 7.0 | 0.00 | 0.00 | 0.00 | 71 | 1012.3 |
| 20260506072737 | 34 | 254 | 1.0 | 3.0 | 0.00 | 0.00 | 0.00 | 73 | 1012.3 |
| 20260506072235 | 34 | 320 | 2.0 | 4.0 | 0.00 | 0.00 | 0.00 | 72 | 1012.3 |
| 20260506071732 | 34 | 267 | 1.0 | 3.0 | 0.00 | 0.00 | 0.00 | 75 | 1012.2 |
| 20260506071230 | 34 | 282 | 2.0 | 4.0 | 0.00 | 0.00 | 0.00 | 74 | 1012.3 |
| 20260506070727 | 34 | 292 | 2.0 | 3.0 | 0.00 | 0.00 | 0.00 | 74 | 1012.3 |
| 20260506070224 | 34 | 284 | 1.0 | 4.0 | 0.00 | 0.00 | 0.00 | 73 | 1012.3 |
| 20260506062201 | 35 | 292 | 2.0 | 4.0 | 0.00 | 0.00 | 0.00 | 70 | 1012.3 |
| 20260506061656 | 35 | 251 | 4.0 | 4.0 | 0.00 | 0.00 | 0.00 | 72 | 1012.4 |
| 20260506061154 | 35 | 303 | 4.0 | 7.0 | 0.00 | 0.00 | 0.00 | 72 | 1012.1 |
| 20260506060653 | 35 | 256 | 1.0 | 3.0 | 0.00 | 0.00 | 0.00 | 73 | 1012.1 |
| 20260506060149 | 35 | 269 | 2.0 | 4.0 | 0.00 | 0.00 | 0.00 | 74 | 1012.2 |
| 20260506051121 | 35 | 285 | 2.0 | 3.0 | 0.00 | 0.00 | 0.00 | 76 | 1012.4 |
| 20260506050620 | 35 | 279 | 1.0 | 6.0 | 0.00 | 0.00 | 0.00 | 75 | 1012.3 |
| 20260506050116 | 35 | 314 | 2.0 | 4.0 | 0.00 | 0.00 | 0.00 | 75 | 1012.4 |
| 20260506045110 | 35 | 268 | 1.0 | 3.0 | 0.00 | 0.00 | 0.00 | 76 | 1012.4 |
| 20260506044608 | 35 | 261 | 6.0 | 9.0 | 0.00 | 0.00 | 0.00 | 75 | 1012.3 |
| 20260506044104 | 35 | 273 | 2.0 | 4.0 | 0.00 | 0.00 | 0.00 | 74 | 1012.4 |
| 20260506043601 | 35 | 287 | 2.0 | 4.0 | 0.00 | 0.00 | 0.00 | 74 | 1012.3 |
| 20260506043100 | 35 | 268 | 2.0 | 3.0 | 0.00 | 0.00 | 0.00 | 74 | 1012.2 |
| 20260506042558 | 35 | 270 | 1.0 | 6.0 | 0.00 | 0.00 | 0.00 | 73 | 1012.3 |
| 20260506042056 | 35 | 273 | 1.0 | 3.0 | 0.00 | 0.00 | 0.00 | 73 | 1012.2 |
| 20260506041555 | 35 | 302 | 3.0 | 4.0 | 0.00 | 0.00 | 0.00 | 72 | 1012.2 |
| 20260506041051 | 35 | 308 | 3.0 | 4.0 | 0.00 | 0.00 | 0.00 | 72 | 1012.3 |
| 20260506040549 | 35 | 300 | 2.0 | 6.0 | 0.00 | 0.00 | 0.00 | 72 | 1012.3 |
| 20260506040044 | 35 | 267 | 2.0 | 3.0 | 0.00 | 0.01 | 0.01 | 71 | 1012.2 |
| 20260506035541 | 35 | 276 | 3.0 | 6.0 | 0.00 | 0.01 | 0.01 | 71 | 1012.3 |
| 20260506035038 | 35 | 261 | 1.0 | 2.0 | 0.00 | 0.01 | 0.01 | 70 | 1012.2 |
| 20260506034536 | 35 | 270 | 0.0 | 3.0 | 0.00 | 0.01 | 0.01 | 70 | 1012.4 |
| 20260506034032 | 35 | 294 | 3.0 | 4.0 | 0.00 | 0.01 | 0.01 | 69 | 1012.5 |
| 20260506033530 | 35 | 307 | 2.0 | 6.0 | 0.00 | 0.01 | 0.01 | 68 | 1012.2 |
| 20260506033027 | 35 | 299 | 4.0 | 4.0 | 0.00 | 0.01 | 0.01 | 68 | 1012.1 |
| 20260506032524 | 35 | 289 | 4.0 | 6.0 | 0.00 | 0.01 | 0.01 | 67 | 1012.3 |
| 20260506032021 | 35 | 276 | 3.0 | 3.0 | 0.00 | 0.01 | 0.01 | 66 | 1012.2 |
| 20260506031519 | 35 | 281 | 2.0 | 8.0 | 0.00 | 0.01 | 0.01 | 65 | 1012.2 |
| 20260506031015 | 35 | 327 | 2.0 | 3.0 | 0.00 | 0.01 | 0.01 | 65 | 1012.4 |
| 20260506030514 | 35 | 264 | 2.0 | 4.0 | 0.00 | 0.01 | 0.01 | 63 | 1012.4 |
| 20260506030010 | 35 | 309 | 2.0 | 6.0 | 0.00 | 0.01 | 0.01 | 63 | 1012.4 |
| 20260506025507 | 35 | 266 | 2.0 | 4.0 | 0.00 | 0.01 | 0.01 | 62 | 1012.3 |
| 20260506025003 | 35 | 305 | 3.0 | 6.0 | 0.00 | 0.01 | 0.01 | 62 | 1012.1 |
| 20260506024500 | 35 | 332 | 3.0 | 6.0 | 0.00 | 0.01 | 0.01 | 61 | 1012.2 |
| 20260506023956 | 35 | 255 | 2.0 | 3.0 | 0.00 | 0.01 | 0.01 | 62 | 1012.3 |
| 20260506023453 | 35 | 281 | 4.0 | 6.0 | 0.00 | 0.01 | 0.01 | 62 | 1012.4 |
| 20260506022950 | 35 | 277 | 2.0 | 7.0 | 0.00 | 0.01 | 0.01 | 62 | 1012.2 |
| 20260506022448 | 35 | 278 | 1.0 | 2.0 | 0.00 | 0.01 | 0.01 | 63 | 1012.3 |
| 20260506021945 | 35 | 280 | 3.0 | 7.0 | 0.00 | 0.01 | 0.01 | 63 | 1012.3 |
| 20260506021443 | 35 | 302 | 2.0 | 3.0 | 0.00 | 0.01 | 0.01 | 63 | 1012.1 |
| 20260506020940 | 35 | 287 | 2.0 | 3.0 | 0.00 | 0.01 | 0.01 | 64 | 1012.0 |
| 20260506020437 | 35 | 297 | 3.0 | 4.0 | 0.00 | 0.01 | 0.01 | 63 | 1012.2 |
| 20260506015934 | 35 | 307 | 1.0 | 4.0 | 0.00 | 0.01 | 0.01 | 63 | 1012.2 |
| 20260506015432 | 35 | 275 | 1.0 | 4.0 | 0.00 | 0.01 | 0.01 | 62 | 1012.0 |
| 20260506014928 | 35 | 310 | 3.0 | 3.0 | 0.00 | 0.01 | 0.01 | 64 | 1012.1 |
| 20260506014426 | 35 | 269 | 0.0 | 1.0 | 0.00 | 0.01 | 0.01 | 64 | 1012.0 |
| 20260506013921 | 35 | 297 | 4.0 | 4.0 | 0.00 | 0.01 | 0.01 | 63 | 1012.0 |
| 20260506013420 | 35 | 278 | 1.0 | 3.0 | 0.00 | 0.01 | 0.01 | 63 | 1011.8 |
| 20260506012916 | 35 | 263 | 3.0 | 6.0 | 0.00 | 0.01 | 0.01 | 63 | 1011.8 |
| 20260506012413 | 35 | 284 | 4.0 | 7.0 | 0.00 | 0.01 | 0.01 | 62 | 1011.9 |
| 20260506011910 | 35 | 262 | 2.0 | 4.0 | 0.00 | 0.01 | 0.01 | 63 | 1011.8 |
| 20260506011407 | 35 | 259 | 2.0 | 4.0 | 0.00 | 0.01 | 0.01 | 64 | 1011.6 |
| 20260506010903 | 35 | 266 | 3.0 | 4.0 | 0.00 | 0.01 | 0.01 | 64 | 1011.7 |
| 20260506010402 | 35 | 292 | 1.0 | 4.0 | 0.00 | 0.01 | 0.01 | 64 | 1011.7 |
| 20260506005858 | 35 | 289 | 5.0 | 7.0 | 0.00 | 0.01 | 0.01 | 62 | 1011.8 |
| 20260506005356 | 35 | 257 | 2.0 | 6.0 | 0.00 | 0.01 | 0.01 | 64 | 1011.7 |
| 20260506004851 | 35 | 272 | 1.0 | 4.0 | 0.00 | 0.01 | 0.01 | 64 | 1011.7 |
| 20260506004349 | 35 | 251 | 2.0 | 4.0 | 0.00 | 0.01 | 0.01 | 64 | 1011.4 |
| 20260506003845 | 35 | 293 | 2.0 | 6.0 | 0.00 | 0.01 | 0.01 | 65 | 1011.7 |
| 20260506003341 | 35 | 280 | 1.0 | 7.0 | 0.00 | 0.01 | 0.01 | 65 | 1011.8 |
| 20260506002838 | 35 | 272 | 2.0 | 7.0 | 0.00 | 0.01 | 0.01 | 64 | 1011.8 |
| 20260506002334 | 35 | 263 | 1.0 | 3.0 | 0.00 | 0.01 | 0.01 | 66 | 1011.8 |
| 20260506001830 | 35 | 283 | 4.0 | 7.0 | 0.00 | 0.01 | 0.01 | 64 | 1011.6 |
| 20260506001327 | 35 | 264 | 3.0 | 4.0 | 0.00 | 0.01 | 0.01 | 65 | 1011.7 |
| 20260506000824 | 35 | 315 | 3.0 | 8.0 | 0.00 | 0.01 | 0.01 | 65 | 1011.7 |
| 20260506000323 | 35 | 266 | 3.0 | 7.0 | 0.00 | 0.01 | 0.01 | 64 | 1011.6 |
| 20260505235818 | 35 | 314 | 6.0 | 8.0 | 0.00 | 0.01 | 0.01 | 64 | 1011.4 |
| 20260505235316 | 35 | 272 | 6.0 | 8.0 | 0.00 | 0.01 | 0.01 | 65 | 1011.3 |
| 20260505234813 | 35 | 317 | 5.0 | 8.0 | 0.00 | 0.01 | 0.01 | 66 | 1011.6 |
| 20260505234311 | 35 | 276 | 2.0 | 8.0 | 0.00 | 0.01 | 0.01 | 68 | 1011.7 |
| 20260505233807 | 35 | 301 | 4.0 | 7.0 | 0.00 | 0.01 | 0.01 | 68 | 1011.4 |
| 20260505233305 | 35 | 285 | 6.0 | 9.0 | 0.00 | 0.01 | 0.01 | 69 | 1011.4 |
| 20260505232802 | 35 | 296 | 5.0 | 7.0 | 0.00 | 0.01 | 0.01 | 66 | 1011.7 |
| 20260505232300 | 35 | 240 | 4.0 | 6.0 | 0.00 | 0.01 | 0.01 | 68 | 1011.4 |
| 20260505231756 | 35 | 271 | 6.0 | 9.0 | 0.00 | 0.01 | 0.01 | 68 | 1011.4 |
| 20260505231255 | 35 | 282 | 7.0 | 14.0 | 0.00 | 0.01 | 0.01 | 68 | 1011.3 |
| 20260505230753 | 35 | 261 | 4.0 | 14.0 | 0.00 | 0.01 | 0.01 | 67 | 1011.4 |
| 20260505230249 | 35 | 274 | 8.0 | 11.0 | 0.00 | 0.01 | 0.01 | 67 | 1011.4 |
| 20260505225746 | 35 | 277 | 7.0 | 9.0 | 0.00 | 0.01 | 0.01 | 68 | 1011.6 |
| 20260505225243 | 35 | 283 | 11.0 | 15.0 | 0.00 | 0.01 | 0.01 | 66 | 1011.6 |
| 20260505224738 | 35 | 266 | 4.0 | 11.0 | 0.00 | 0.01 | 0.01 | 65 | 1011.3 |
| 20260505224236 | 35 | 254 | 4.0 | 11.0 | 0.00 | 0.01 | 0.01 | 66 | 1011.3 |
| 20260505223733 | 35 | 270 | 2.0 | 6.0 | 0.00 | 0.01 | 0.01 | 65 | 1011.2 |
| 20260505223229 | 35 | 252 | 4.0 | 10.0 | 0.00 | 0.01 | 0.01 | 65 | 1011.3 |
| 20260505222725 | 35 | 323 | 4.0 | 10.0 | 0.00 | 0.01 | 0.01 | 66 | 1011.1 |
| 20260505222221 | 35 | 300 | 7.0 | 11.0 | 0.00 | 0.01 | 0.01 | 66 | 1011.2 |
| 20260505221719 | 35 | 297 | 2.0 | 10.0 | 0.00 | 0.01 | 0.01 | 66 | 1011.1 |
| 20260505221215 | 35 | 301 | 5.0 | 13.0 | 0.00 | 0.01 | 0.01 | 66 | 1011.1 |
| 20260505220712 | 35 | 297 | 5.0 | 13.0 | 0.00 | 0.01 | 0.01 | 66 | 1011.1 |
| 20260505220210 | 35 | 294 | 6.0 | 21.0 | 0.00 | 0.01 | 0.01 | 65 | 1011.2 |
| 20260505215708 | 35 | 323 | 9.0 | 16.0 | 0.00 | 0.01 | 0.01 | 66 | 1011.1 |
| 20260505215205 | 35 | 265 | 6.0 | 8.0 | 0.00 | 0.01 | 0.01 | 67 | 1011.0 |
| 20260505214702 | 35 | 279 | 4.0 | 9.0 | 0.00 | 0.01 | 0.01 | 66 | 1011.1 |
| 20260505214200 | 35 | 281 | 5.0 | 17.0 | 0.00 | 0.01 | 0.01 | 64 | 1011.1 |
| 20260505213657 | 35 | 297 | 4.0 | 15.0 | 0.00 | 0.01 | 0.01 | 64 | 1011.0 |
| 20260505213154 | 35 | 328 | 4.0 | 8.0 | 0.00 | 0.01 | 0.01 | 64 | 1011.0 |
| 20260505212650 | 35 | 237 | 8.0 | 9.0 | 0.00 | 0.01 | 0.01 | 63 | 1010.9 |
| 20260505212148 | 35 | 334 | 6.0 | 13.0 | 0.00 | 0.01 | 0.01 | 64 | 1010.9 |
| 20260505211645 | 36 | 293 | 5.0 | 10.0 | 0.00 | 0.01 | 0.01 | 65 | 1010.8 |
| 20260505211142 | 36 | 290 | 6.0 | 14.0 | 0.00 | 0.01 | 0.01 | 63 | 1010.8 |
| 20260505210638 | 36 | 322 | 13.0 | 18.0 | 0.00 | 0.01 | 0.01 | 62 | 1011.0 |
| 20260505210135 | 36 | 293 | 9.0 | 13.0 | 0.00 | 0.01 | 0.01 | 62 | 1011.0 |
| 20260505205632 | 36 | 282 | 5.0 | 15.0 | 0.00 | 0.01 | 0.01 | 63 | 1010.6 |
| 20260505205131 | 36 | 244 | 9.0 | 19.0 | 0.00 | 0.01 | 0.01 | 64 | 1010.8 |
| 20260505204627 | 36 | 285 | 10.0 | 13.0 | 0.00 | 0.01 | 0.01 | 62 | 1010.6 |
| 20260505204125 | 37 | 295 | 12.0 | 17.0 | 0.00 | 0.01 | 0.01 | 63 | 1010.8 |
| 20260505203621 | 37 | 272 | 6.0 | 17.0 | 0.00 | 0.01 | 0.01 | 65 | 1010.7 |
| 20260505203119 | 37 | 265 | 9.0 | 13.0 | 0.00 | 0.01 | 0.01 | 63 | 1010.6 |
| 20260505202614 | 37 | 284 | 4.0 | 11.0 | 0.00 | 0.01 | 0.01 | 64 | 1010.5 |
| 20260505202111 | 36 | 290 | 7.0 | 14.0 | 0.00 | 0.01 | 0.01 | 64 | 1010.7 |
| 20260505201607 | 36 | 324 | 7.0 | 15.0 | 0.00 | 0.01 | 0.01 | 67 | 1010.5 |
| 20260505201105 | 36 | 276 | 8.0 | 16.0 | 0.00 | 0.01 | 0.01 | 64 | 1010.7 |
| 20260505200557 | 35 | 313 | 9.0 | 11.0 | 0.00 | 0.01 | 0.01 | 66 | 1010.5 |
| 20260505200054 | 36 | 336 | 5.0 | 9.0 | 0.00 | 0.01 | 0.01 | 67 | 1010.4 |
| 20260505195550 | 36 | 0 | 9.0 | 16.0 | 0.00 | 0.01 | 0.01 | 66 | 1010.4 |
| 20260505195048 | 36 | 271 | 7.0 | 17.0 | 0.00 | 0.01 | 0.01 | 67 | 1010.3 |
| 20260505194545 | 36 | 278 | 4.0 | 13.0 | 0.00 | 0.01 | 0.01 | 66 | 1010.2 |
| 20260505194040 | 36 | 275 | 4.0 | 11.0 | 0.00 | 0.01 | 0.01 | 66 | 1010.1 |
| 20260505193537 | 36 | 272 | 8.0 | 15.0 | 0.00 | 0.01 | 0.01 | 66 | 1010.0 |
| 20260505193035 | 37 | 333 | 7.0 | 13.0 | 0.00 | 0.01 | 0.01 | 64 | 1010.0 |
| 20260505192533 | 37 | 261 | 6.0 | 9.0 | 0.00 | 0.01 | 0.01 | 68 | 1009.9 |
| 20260505192030 | 36 | 301 | 4.0 | 13.0 | 0.00 | 0.01 | 0.01 | 68 | 1009.9 |
| 20260505191528 | 37 | 304 | 9.0 | 13.0 | 0.00 | 0.01 | 0.01 | 64 | 1009.9 |
| 20260505191026 | 36 | 295 | 7.0 | 13.0 | 0.00 | 0.01 | 0.01 | 66 | 1009.9 |
| 20260505190520 | 38 | 235 | 6.0 | 11.0 | 0.00 | 0.01 | 0.01 | 66 | 1009.8 |
| 20260505190016 | 38 | 258 | 5.0 | 14.0 | 0.00 | 0.01 | 0.01 | 65 | 1010.0 |
| 20260505185508 | 37 | 278 | 7.0 | 16.0 | 0.00 | 0.01 | 0.01 | 67 | 1009.7 |
| 20260505185004 | 37 | 293 | 5.0 | 15.0 | 0.00 | 0.01 | 0.01 | 69 | 1009.7 |
| 20260505184501 | 37 | 292 | 6.0 | 10.0 | 0.00 | 0.01 | 0.01 | 67 | 1009.8 |
| 20260505183957 | 37 | 282 | 6.0 | 9.0 | 0.00 | 0.01 | 0.01 | 69 | 1009.7 |
| 20260505183454 | 36 | 305 | 3.0 | 9.0 | 0.00 | 0.01 | 0.01 | 70 | 1009.5 |
| 20260505182951 | 35 | 313 | 4.0 | 13.0 | 0.00 | 0.01 | 0.01 | 71 | 1009.4 |
| 20260505182448 | 36 | 289 | 8.0 | 15.0 | 0.00 | 0.01 | 0.01 | 67 | 1009.5 |
| 20260505181944 | 37 | 250 | 7.0 | 18.0 | 0.00 | 0.01 | 0.01 | 67 | 1009.5 |
| 20260505181441 | 37 | 298 | 9.0 | 14.0 | 0.00 | 0.01 | 0.01 | 68 | 1009.4 |
| 20260505180938 | 37 | 271 | 4.0 | 13.0 | 0.00 | 0.01 | 0.01 | 70 | 1009.3 |
| 20260505180434 | 35 | 288 | 6.0 | 14.0 | 0.00 | 0.01 | 0.01 | 70 | 1009.3 |
| 20260505175931 | 35 | 266 | 7.0 | 11.0 | 0.00 | 0.01 | 0.01 | 70 | 1009.4 |
| 20260505175427 | 35 | 291 | 11.0 | 14.0 | 0.00 | 0.01 | 0.01 | 71 | 1009.6 |
| 20260505174923 | 34 | 294 | 7.0 | 16.0 | 0.00 | 0.01 | 0.01 | 72 | 1009.4 |
| 20260505174422 | 34 | 305 | 5.0 | 11.0 | 0.00 | 0.01 | 0.01 | 73 | 1009.5 |
| 20260505173917 | 34 | 264 | 4.0 | 11.0 | 0.00 | 0.01 | 0.01 | 74 | 1009.3 |
| 20260505173414 | 34 | 302 | 5.0 | 11.0 | 0.00 | 0.01 | 0.01 | 75 | 1009.4 |
| 20260505172911 | 35 | 285 | 10.0 | 13.0 | 0.00 | 0.01 | 0.01 | 74 | 1009.3 |
| 20260505172409 | 34 | 288 | 7.0 | 10.0 | 0.00 | 0.01 | 0.01 | 73 | 1009.1 |
| 20260505171908 | 33 | 313 | 9.0 | 17.0 | 0.07 | 0.01 | 0.01 | 73 | 1009.2 |
| 20260505171405 | 33 | 274 | 10.0 | 17.0 | 0.07 | 0.01 | 0.01 | 73 | 1009.3 |
| 20260505170856 | 33 | 300 | 7.0 | 13.0 | 0.00 | 0.00 | 0.00 | 74 | 1009.1 |
| 20260505170353 | 33 | 256 | 10.0 | 18.0 | 0.00 | 0.00 | 0.00 | 75 | 1009.0 |
| 20260505165848 | 33 | 276 | 9.0 | 11.0 | 0.00 | 0.00 | 0.00 | 76 | 1008.9 |
| 20260505165344 | 34 | 277 | 4.0 | 11.0 | 0.00 | 0.00 | 0.00 | 76 | 1009.0 |
| 20260505164840 | 34 | 286 | 7.0 | 11.0 | 0.00 | 0.00 | 0.00 | 77 | 1008.8 |
| 20260505164337 | 34 | 253 | 11.0 | 16.0 | 0.00 | 0.00 | 0.00 | 77 | 1008.9 |
| 20260505163835 | 34 | 257 | 2.0 | 9.0 | 0.00 | 0.00 | 0.00 | 80 | 1008.8 |
| 20260505163333 | 34 | 281 | 10.0 | 15.0 | 0.00 | 0.00 | 0.00 | 78 | 1008.8 |
| 20260505162831 | 34 | 324 | 6.0 | 11.0 | 0.00 | 0.00 | 0.00 | 81 | 1008.8 |
| 20260505162327 | 33 | 324 | 5.0 | 15.0 | 0.00 | 0.00 | 0.00 | 80 | 1008.6 |
| 20260505161825 | 33 | 312 | 7.0 | 11.0 | 0.00 | 0.00 | 0.00 | 80 | 1008.6 |
| 20260505161322 | 34 | 257 | 8.0 | 14.0 | 0.00 | 0.00 | 0.00 | 80 | 1008.5 |
| 20260505160819 | 34 | 256 | 6.0 | 13.0 | 0.00 | 0.00 | 0.00 | 83 | 1008.5 |
| 20260505160317 | 34 | 295 | 8.0 | 10.0 | 0.00 | 0.00 | 0.00 | 82 | 1008.6 |
| 20260505153255 | 33 | 270 | 6.0 | 9.0 | 0.00 | 0.00 | 0.00 | 88 | 1008.2 |
| 20260505152753 | 33 | 256 | 2.0 | 9.0 | 0.00 | 0.00 | 0.00 | 90 | 1008.2 |
| 20260505152249 | 33 | 299 | 5.0 | 9.0 | 0.00 | 0.00 | 0.00 | 90 | 1008.2 |
| 20260505151743 | 33 | 336 | 4.0 | 8.0 | 0.00 | 0.00 | 0.00 | 90 | 1007.9 |
| 20260505151241 | 34 | 313 | 8.0 | 11.0 | 0.00 | 0.00 | 0.00 | 88 | 1007.7 |
| 20260505150738 | 34 | 332 | 6.0 | 11.0 | 0.00 | 0.00 | 0.00 | 87 | 1007.7 |
| 20260505150235 | 33 | 307 | 11.0 | 15.0 | 0.00 | 0.00 | 0.00 | 87 | 1007.6 |
| 20260505140200 | 34 | 262 | 5.0 | 8.0 | 0.00 | 0.00 | 0.00 | 93 | 1006.7 |